Details From LIMJ - Genova Cristoforo Colombo Airport
To LIRQ - Firenze
Flight Number -
Tags generated
Created
Modified
Stats Distance 108 nm / 200 km
Max Altitude 0 ft / 0 m
Waypoints 3
Social Downloads 1
Likes 0
Share

Download

Looking for another format? Having issues loading an existing format? Contact us
Advertisement - Login to hide

Notes

Basic altitude profile: - Ascent Rate: 2500ft/min - Ascent Speed: 250kts - Cruise Altitude: 22000ft - Cruise Speed: 420kts - Descent Rate: 1500ft/min - Descent Speed: 250kts Options: - Use NATs: yes - Use PACOTS: yes - Use low airways: yes - Use high airways: yes

Route

LIMJ PRT LIRQ

ID Type Via Altitude (ft/m) Position (lat/lon) Dist (leg/tot) Name
O LIMJ APT - 0 / 0 44.41200 / 8.84180 - / 0 nm Genova Cristoforo Colombo Airport
PRT VOR - 0 / 0 43.80980 / 11.20050 107 / 107 nm PERETOLA (FLORENCE)
O LIRQ APT - 0 / 0 43.81000 / 11.20510 0 / 108 nm Firenze

Altitude Profile

Advertisement - Login to hide

LIMJ

Details ICAO LIMJ (GOA)
Name Genova-Sestri "Cristoforo Colombo"
Region Italy
Timezone Unknown
Stats Elevation 13 ft / 4 m (AMSL)
Location 44.412000° 8.841870°
Runways 1
Magnetic Variation 2.677° E

METAR

LIMJ 031520Z 15005KT 9999 FEW020 SCT045 25/22 Q1011

Decode

TAF

TAF LIMJ 031100Z 0312/0412 VRB05KT 9999 FEW030 TEMPO 0314/0320 TSRA BECMG 0400/0402 01012KT

Decode

Departure Runways

ID Width Length Bearing (true/mag) Surface Threshold Overrun Markings Lighting
10 148 ft / 45 m 9,576 ft / 2,919 m 105.34° / 102.67° ASPHALT 0 ft / 0 m 197 ft / 60 m PREC-APP CENTERLINE EDGE THRESHOLD REIL-OMNI
28 148 ft / 45 m 9,576 ft / 2,919 m 285.37° / 282.69° ASPHALT 535 ft / 163 m 0 ft / 0 m PREC-APP CENTERLINE EDGE THRESHOLD SALS REIL-OMNI

LIRQ

Details ICAO LIRQ (FLR)
Name Firenze-Peretola "Amerigo Vespucci"
Region Italy
Timezone Europe/Rome (UTC+2.0)
Stats Elevation 142 ft / 43 m (AMSL)
Location 43.810000° 11.205100°
Runways 1
Magnetic Variation 3.156° E

METAR

LIRQ 031520Z 01008KT 9999 FEW035TCU SCT040 30/13 Q1011

Decode

TAF

TAF TAF LIRQ 031100Z 0312/0412 24010KT 9999 SCT020 BKN050 TEMPO 0313/0318 TSRA BECMG 0316/0318 VRB05KT TEMPO 0400/0406 4000 TSRA BECMG 0403/0406 04010KT

Decode

Destination Runways

ID Width Length Bearing (true/mag) Surface Threshold Overrun Markings Lighting
05 98 ft / 30 m 5,123 ft / 1,561 m 48.10° / 44.95° ASPHALT 338 ft / 103 m 0 ft / 0 m PREC-APP CENTERLINE EDGE THRESHOLD SSALF TDZ REIL-OMNI
23 98 ft / 30 m 5,123 ft / 1,561 m 228.11° / 224.96° ASPHALT 1,903 ft / 580 m 0 ft / 0 m VISUAL CENTERLINE EDGE THRESHOLD REIL-OMNI

Approach Navaids

Runway Type Ident Frequency Range Bearing (true/mag) Slope Elevation
05 DME IFZ 110.30 MHz 18 nm / 33 km - - 144 ft / 44 m (AMSL)
05 LOC-ILS IFZ 110.30 MHz 18 nm / 33 km 48.10° / 44.95 ° - 131 ft / 40 m (AMSL)
05 GS IFZ 110.30 MHz 10 nm / 19 km 47.00° / 43.84 ° 3.00° 144 ft / 44 m (AMSL)

Popular Alternatives